Vorticity
nan nan nan nan nan nan nan nan nan nan nan nan nan nan nan nan nan nan nan nan nan nan nan nan nan nan nan nan nan nan nan nan nan nan nan nan nan nan nan nan nan nan nan nan nan nan nan nan nan
nan -2 -0 7 11 6 7 9 4 7 11 7 6 5 1 11 15 10 9 7 5 6 6 5 4 5 5 5 5 7 6 4 4 3 4 4 4 4 4 5 5 4 4 4 4 4 4 5 nan
nan 1 0 8 12 10 11 8 8 9 3 0 2 7 12 12 7 4 9 6 6 5 5 7 7 5 6 5 5 7 6 5 4 4 4 4 5 4 5 5 5 5 4 4 4 4 4 4 nan
nan 7 7 7 11 11 9 11 5 2 1 6 7 6 12 7 7 12 6 5 7 5 5 5 6 7 7 6 5 5 6 5 5 4 4 5 4 4 4 5 4 4 4 4 4 3 4 5 nan
nan 6 7 7 8 10 9 8 3 2 7 8 7 8 5 7 12 10 6 7 7 5 7 8 7 8 7 6 5 4 4 5 5 5 4 4 3 4 5 4 4 4 4 3 3 4 6 7 nan
nan 5 8 6 8 7 9 5 2 5 7 8 12 5 5 13 9 5 6 7 6 7 7 6 7 7 7 7 6 4 4 4 5 5 4 3 4 4 4 3 4 4 4 3 4 6 7 7 nan
nan 5 6 5 6 10 8 6 7 7 7 11 5 -1 8 9 5 7 6 6 6 5 7 6 6 5 6 7 7 5 4 4 5 5 5 4 4 4 4 2 4 4 5 5 6 9 8 9 nan
nan 9 7 8 2 10 10 5 7 8 9 8 4 7 13 9 5 5 5 6 5 5 4 6 7 7 5 6 6 6 5 5 5 5 6 5 4 6 5 10 4 2 5 7 9 9 8 7 nan
nan 9 8 6 9 11 8 4 3 7 9 2 7 14 16 7 4 4 4 4 4 6 5 7 6 6 7 5 7 5 6 6 6 6 7 3 5 7 3 4 6 8 6 7 10 8 7 5 nan
nan 2 9 3 14 11 7 5 6 3 4 7 4 12 13 6 4 4 4 4 6 6 6 5 6 6 5 6 6 6 7 6 5 4 4 5 6 4 6 6 7 10 9 7 7 6 7 6 nan
nan 3 1 3 11 14 9 6 5 8 8 10 8 9 8 4 4 4 4 5 6 4 6 6 5 6 4 5 4 6 6 7 7 6 5 7 5 7 6 8 10 10 10 9 6 3 3 7 nan
nan 6 -3 8 14 13 9 5 5 1 11 17 12 11 7 4 4 5 5 6 6 5 6 6 5 5 4 3 7 5 6 7 7 9 7 5 7 4 6 8 7 5 4 9 7 5 7 6 nan
nan 5 9 13 13 12 8 4 6 6 7 12 13 11 6 4 5 5 5 6 5 6 6 6 5 5 5 4 5 5 7 7 6 7 6 5 6 7 7 5 4 7 7 6 7 6 5 9 nan
nan 10 12 18 15 11 7 6 3 10 6 10 9 8 7 5 4 5 6 5 5 6 6 6 5 5 5 5 5 6 6 6 7 7 8 6 5 6 6 7 7 6 7 7 6 6 7 7 nan
nan 6 12 16 9 8 7 8 5 10 7 9 8 8 8 6 6 5 5 5 6 6 7 6 7 7 6 6 6 5 6 7 8 8 7 5 7 5 6 8 8 8 8 8 7 5 7 7 nan
nan 5 7 12 3 9 9 7 12 6 6 7 9 9 9 8 5 6 6 6 6 7 7 6 7 7 6 5 6 6 7 7 7 8 9 8 7 6 7 6 7 8 8 6 8 7 8 8 nan
nan 5 10 7 4 5 6 8 17 5 5 6 9 9 7 7 6 7 6 7 7 8 8 7 7 6 7 6 6 7 5 7 8 8 8 10 10 8 7 6 8 7 8 7 8 9 8 8 nan
nan 8 9 3 12 4 5 -1 12 13 6 5 7 7 8 7 8 7 7 7 7 7 7 7 8 8 7 6 7 9 9 6 7 8 8 9 9 8 9 7 8 9 7 8 6 7 7 8 nan
nan 8 3 10 12 5 5 3 3 8 9 7 7 7 7 7 9 7 8 6 6 6 7 7 7 6 7 8 8 7 8 7 7 10 8 7 7 8 8 9 9 8 6 9 8 8 7 7 nan
nan 6 6 6 5 8 6 6 4 8 8 9 7 6 7 8 8 8 7 7 7 6 6 7 7 7 4 4 6 8 9 9 9 8 9 10 9 9 6 8 8 9 8 7 8 9 9 10 nan
nan 6 6 3 4 5 8 11 10 8 10 8 9 9 8 8 8 8 7 6 7 7 7 7 8 7 6 5 5 6 6 9 11 9 11 10 9 9 10 8 9 7 7 12 10 8 6 9 nan
nan 6 6 5 3 7 11 6 14 15 9 9 8 8 8 8 7 8 9 8 7 7 7 8 8 8 7 8 5 7 4 8 7 8 9 9 13 10 9 8 8 6 8 10 9 6 7 10 nan
nan 7 7 7 6 7 1 3 6 15 15 13 11 9 8 8 9 8 8 8 8 8 7 8 9 8 8 7 7 7 6 5 7 9 8 10 10 10 8 7 7 8 9 5 6 9 9 6 nan
nan 10 15 11 9 13 5 4 8 5 10 11 17 15 10 9 9 9 8 9 9 8 7 8 8 8 9 8 8 4 6 6 7 8 7 9 8 10 10 7 7 7 8 6 7 9 7 6 nan
nan 7 7 9 7 14 13 3 3 4 8 3 17 21 13 10 9 9 9 8 9 9 7 7 8 8 9 8 7 9 7 8 6 6 6 8 9 10 11 7 7 7 7 6 9 9 7 10 nan
nan -1 2 4 2 8 7 12 6 4 2 11 10 16 20 11 8 10 9 8 9 9 8 7 7 9 9 8 8 9 8 5 10 7 7 9 8 10 10 9 8 8 8 8 9 6 8 9 nan
nan 6 -0 7 3 5 11 7 8 7 12 14 13 15 14 13 10 9 8 8 9 9 8 7 7 9 9 7 8 9 9 7 7 9 9 6 8 9 12 9 8 10 9 8 7 7 9 7 nan
nan 13 8 7 10 7 5 5 17 11 7 9 13 12 10 14 13 9 9 9 8 8 8 8 7 7 9 8 7 9 10 9 7 9 8 7 9 9 9 10 9 9 8 8 6 7 7 6 nan
nan 6 11 10 8 6 9 11 5 4 5 10 11 12 13 14 13 12 10 9 8 8 9 9 9 9 8 8 9 9 10 9 8 8 8 10 8 12 9 9 8 8 7 7 6 5 9 10 nan
nan nan nan nan nan nan nan nan nan nan nan nan nan nan nan nan nan nan nan nan nan nan nan nan nan nan nan nan nan nan nan nan nan nan nan nan nan nan nan nan nan nan nan nan nan nan nan nan nan
CAPE
1570 1706 2062 2303 1149 157 105 179 142 213 239 268 10 21 164 233 235 449 403 519 504 607 625 805 1091 956 803 977 1184 1395 1810 1563 2211 2146 1646 1497 1832 2008 2236 2256 2027 1997 1997 1999 1855 1670 1691 1720 1691
1907 1690 1585 1295 109 76 206 165 238 330 244 191 227 137 226 246 250 384 595 556 468 417 537 745 1280 1220 844 1020 1280 1569 1250 1329 1856 1735 1457 1604 1759 1918 2045 1892 1840 1945 1921 1813 1748 1676 1632 1620 1641
1130 1034 1159 28 9 92 180 283 393 319 189 237 362 334 215 302 316 427 650 754 639 640 523 872 1249 1306 1227 1231 1361 1735 1637 1728 1860 1647 1575 1690 1828 2167 2000 1785 1852 1863 1762 1644 1507 1442 1527 1699 1730
793 973 956 35 0 0 104 392 552 488 374 284 215 317 322 298 412 597 776 934 886 920 796 858 1174 1467 1455 1479 1623 1800 1888 1906 1836 1669 1757 2044 2182 1883 1690 1737 1819 1684 1593 1555 1579 1607 1645 1674 1775
923 447 32 8 0 0 58 404 628 569 430 297 208 182 413 644 534 830 1052 1072 1093 1041 1046 884 1756 1705 1715 1742 1867 2006 1744 1887 1966 2048 2070 2213 1919 1871 1814 1969 1806 1608 1552 1591 1600 1789 1850 1908 1989
636 134 91 38 11 28 114 359 602 638 673 453 212 438 689 523 769 961 1118 1191 1188 1194 1311 1604 1984 2042 2024 2035 2216 2330 1987 2122 2233 2119 2102 2088 2065 2072 2002 1859 1625 1581 1534 1610 1989 1907 1879 1814 1972
314 112 82 105 28 38 71 223 454 670 716 483 214 545 804 537 831 996 1025 1049 1100 1264 1448 1667 1866 2255 2205 2226 2503 2311 2149 2057 1874 2037 2102 2040 2127 2071 2039 1927 1788 1730 1736 2038 2027 1623 1656 1690 1601
279 115 66 72 138 53 51 206 419 419 687 437 227 534 751 494 677 803 970 1104 1217 1297 1619 1546 1753 1796 1854 2090 2189 2301 2065 1745 1835 2044 2001 2077 2152 2060 1909 1880 1798 1713 1844 1754 1968 1609 1652 1707 1715
273 188 117 104 159 266 172 200 418 462 724 571 509 350 474 407 603 775 1102 1240 1284 1309 1398 1778 1707 2052 2027 1338 1581 1945 2052 2116 1950 1964 2039 1793 1325 1716 1540 1525 1320 1535 1549 1450 1727 1565 1839 1640 1482
66 223 122 42 48 324 223 226 517 635 651 572 730 599 546 475 742 859 1086 1297 1502 1718 1581 1483 1779 1912 1605 1256 1826 1822 1447 1195 1118 1141 1366 1149 1415 1710 1589 1277 1227 1216 1306 1538 1628 1616 1666 1666 1357
0 70 87 35 5 227 315 319 497 272 534 451 748 872 734 664 773 892 1040 1210 1294 1405 1537 1448 1524 1833 1618 1500 1709 1672 1470 1374 1507 1775 1416 1340 1532 1682 1873 1651 1524 1208 1260 1866 1707 1747 1505 1631 1500
0 0 0 0 0 224 359 372 430 237 175 317 557 891 836 814 693 709 877 1001 1145 1344 1339 1502 1562 1772 1720 1847 1664 1645 1434 1375 1131 1146 1741 1849 1511 1731 1983 1559 1500 1866 1469 1640 1602 1525 1708 1642 1554
0 0 0 0 0 111 366 438 414 350 316 487 706 917 810 817 684 718 685 741 927 1289 1413 1446 1749 2132 2157 2222 1512 1453 1389 1208 1053 1198 1464 1391 1437 1650 1471 1651 1896 1617 1637 1502 1589 1604 1676 1655 1273
0 0 0 0 25 206 382 562 523 362 362 730 918 1001 871 827 810 831 760 801 952 1069 1284 1608 1749 2111 2197 2128 1887 1671 1530 1306 1399 1195 1224 1716 1553 2086 1606 1606 1505 1729 1798 1496 1572 1660 1641 1514 1327
0 0 4 0 244 353 363 650 569 455 622 1049 1017 1013 895 840 875 969 994 1036 1025 1103 1161 1647 1933 2013 2327 2316 2337 2191 1710 1541 1376 1274 1780 2080 2304 2006 1705 1526 1524 1499 1759 2028 1875 1612 1490 1344 929
0 0 20 120 280 401 455 322 491 731 756 994 922 979 831 856 845 994 1123 1145 1114 1165 1246 1436 1488 1767 2138 2226 2279 2018 1609 1742 2448 1794 1973 1769 1993 1974 1874 1714 1566 1339 1604 1665 1582 1596 1283 707 343
0 1 11 207 245 394 453 206 462 776 829 1001 801 674 734 864 974 1165 1129 1120 1127 1443 1579 1527 1436 1342 1815 2333 2309 2195 2174 2501 2181 2195 2226 1870 1958 1852 1944 1693 1729 1719 1622 1638 1590 984 643 128 21
0 0 24 36 218 342 348 296 507 769 712 770 925 659 605 681 828 1057 1179 1407 1387 1600 1855 1848 1673 1890 2277 3414 2989 2580 2057 1871 1757 2529 2542 2371 2079 1786 1825 1698 1589 1669 1720 1599 847 739 339 182 19
2 19 46 53 178 271 184 152 409 792 773 714 990 927 641 469 556 954 1326 1418 1456 1773 2024 2317 2327 2500 3170 1872 1703 1902 1763 1749 1844 1952 2177 2264 2149 1971 2048 1713 1608 1809 1498 1001 674 290 22 2 47
0 3 40 88 154 179 140 198 211 441 810 680 794 987 1039 654 555 967 1331 1362 1395 1757 2132 2421 2616 2778 3006 2132 2923 2108 2023 1678 1973 2019 2159 2279 2176 2215 2012 1915 1748 1606 728 801 226 112 18 9 200
0 0 18 99 144 180 106 187 170 125 491 662 689 674 1003 877 719 794 985 1236 1320 1541 2085 2427 2770 2950 3081 2717 2701 2840 2644 2642 2220 2060 2150 2323 2430 2386 2300 2086 1442 1315 479 3 212 174 105 26 206
0 0 4 75 109 114 137 108 55 97 315 567 756 684 535 888 923 861 906 1048 1264 1445 1774 2375 2759 3069 3122 3316 3351 3277 2197 1466 1050 1153 944 1112 1734 1868 1772 1764 1347 420 0 62 261 107 202 320 16
0 0 0 26 77 93 123 135 31 38 127 379 694 768 537 303 627 852 878 858 1117 1303 1583 2049 2734 3268 3227 3301 3808 2905 2904 1531 1336 1260 1286 1377 1652 1448 1174 1583 587 303 139 403 341 210 278 110 70
0 0 9 29 44 83 89 74 4 11 133 87 300 605 673 232 213 433 621 730 996 1172 1404 1669 2739 3672 3255 3276 3388 3356 2719 2198 1371 1648 1280 790 876 1304 1341 1506 479 348 186 482 409 214 208 244 221
0 0 21 42 45 43 41 47 0 0 10 29 36 273 678 321 216 296 487 724 1008 1201 1354 1584 2372 3316 3058 3118 3106 3320 3293 3039 2695 2398 1476 672 597 545 1139 1643 578 298 741 561 326 304 170 253 172
0 0 7 44 29 32 15 4 0 27 9 0 20 67 493 485 170 271 468 694 1002 1131 1359 1610 2224 3230 2908 2846 3118 3659 3509 3058 2758 2681 1019 701 304 338 659 1280 434 403 545 623 192 134 139 167 185
0 0 0 34 46 41 6 1 0 4 5 10 29 83 325 585 235 252 457 680 932 1196 1882 2409 3028 2838 2738 2597 2946 3399 3489 3215 2816 2665 2269 1264 920 335 766 718 477 304 611 255 192 102 249 195 252
0 0 0 8 70 40 7 18 0 18 0 0 45 117 257 549 575 225 492 677 938 1166 1416 1739 2071 2586 2481 2508 2648 2777 2961 3222 3134 2890 2516 2063 1078 865 744 664 291 401 329 164 302 134 177 197 28
0 0 0 1 4 23 37 2 0 0 0 0 3 109 144 472 735 665 467 696 1003 1095 1256 1621 1940 2302 2421 2449 3018 2941 2715 2845 3153 3158 2857 2293 1603 1191 942 881 359 493 216 199 330 215 39 114 118
0 0 0 0 1 9 14 2 1 0 0 0 0 3 43 241 735 912 835 856 1000 1260 1233 1413 1647 1872 2219 2984 3207 2837 2943 2890 2852 3601 2886 2746 1871 1007 1006 819 714 368 248 218 321 142 4 20 17